Location: Brunsen
(51.8651°N, 9.8610°E)
Time: 15:01:06
(UTC+00:00)

Meteor 1-21 - Pass Details

Date: 23 May 2024
Orbit: 845 x 886 km, 81.2° (Epoch: 12 June)

Event Time Altitude Azimuth Distance (km) Brightness Sun altitude
Exits shadow 00:04:42 26° 174° (S) 1,648 5.1 -16.8°
Maximum altitude 00:07:59 68° 98° (E) 933 4.4 -16.7°
Drops below altitude 10° 00:13:42 10° 17° (NNE) 2,536 8.0 -16.5°
Sets 00:16:11 0° 15° (NNE) 3,484 9.3 -16.4°
